Вернуться в каталог

CZ-6A DEB

АктивенPO
NORAD 60864·DEBRIS·🇨🇳 China

Запущен Aug 6, 2024 с Taiyuan Satellite Launch Center

Loading…

Ближайшие Пролёты (ближайшие 24 часа)

TLE

СвежийSource: Space-Track

Эпоха: Sep 14, 2026, 13:12 UTC

1 60864U 24140JT  26257.55011537  .00001166  00000-0  40164-3 0  9996
2 60864  89.4091 300.3494 0018637  60.7640 299.5419 14.35316467108309

Отслеживайте CZ-6A DEB в реальном времени с AllMySat

Download on the App Store